Regional Weather Roundup
Issued by NWS

Home | Current Version | Previous Version | Graphics & Text | Print | Product List | Glossary On
Versions: 1 2 3 4 5 6 7 8 9 10 11 12 13 14 15 16 17 18 19 20 21 22 23 24 25 26 27 28 29 30 31 32 33 34 35 36 37 38 39 40 41 42 43 44 45 46 47 48 49 50
000
ASUS43 KOAX 292102
RWRNE

WEATHER ROUNDUP FOR NEBRASKA
NATIONAL WEATHER SERVICE OMAHA NE
400 PM CDT FRI JUL 29 2016

NOTES: SATELLITE DATA IS BEING USED TO AUGMENT CLOUD COVER ABOVE
       12000 FEET.
       "FAIR" INDICATES FEW OR NO CLOUDS BELOW 12,000 FEET WITH NO
       SIGNIFICANT WEATHER AND/OR OBSTRUCTIONS TO VISIBILITY.

  * THESE STATIONS DO NOT REPORT WEATHER SUCH AS RAIN...SNOW OR FOG.

NEZ001>004-019>022-054>056-292200-
NEBRASKA PANHANDLE

CITY           SKY/WX    TMP DP  RH WIND       PRES   REMARKS
SCOTTSBLUFF    CLOUDY    83  59  44 SE14      30.04F
ALLIANCE       CLOUDY    77  58  51 S13       30.08F
CHADRON        MOSUNNY   84  54  35 E10G17    30.02F
SIDNEY         MOSUNNY   81  56  42 S12G23    30.13F
$$

NEZ057>060-069>072-079>082-292200-
SOUTHWEST NEBRASKA

CITY           SKY/WX    TMP DP  RH WIND       PRES   REMARKS
NORTH PLATTE   SUNNY     82  58  43 CALM      30.06F
IMPERIAL       SUNNY     80  58  46 CALM      30.08F
LEXINGTON      MOSUNNY   78  64  62 CALM      30.06F HAZE
MCCOOK         MOSUNNY   84  56  38 VRB3      30.06F
OGALLALA       MOSUNNY   81  56  41 SE5       30.08F
$$

NEZ005>010-023>029-035>040-094-292200-
NORTH CENTRAL NEBRASKA

CITY           SKY/WX    TMP DP  RH WIND       PRES   REMARKS
VALENTINE      MOSUNNY   78  57  48 S8        30.06F
AINSWORTH      MOSUNNY   75  65  70 E10       30.08F
BROKEN BOW     PTSUNNY   76  66  71 VRB6      30.07F
O`NEILL        SUNNY     78  57  48 E8        30.07F
ORD            CLOUDY    76  59  55 E3        30.06F
THEDFORD       MOSUNNY   78  59  51 CALM      30.08F
$$

NEZ041-046>049-061>064-073>077-083>087-292200-
SOUTH CENTRAL NEBRASKA

CITY           SKY/WX    TMP DP  RH WIND       PRES   REMARKS
GRAND ISLAND   CLOUDY    76  61  59 SE5       30.06F
AURORA         CLOUDY    78  62  57 E3        30.06F
HASTINGS       MOSUNNY   78  66  66 NE9       30.07F
HEBRON         CLOUDY    81  61  50 N10       30.03S
HOLDREGE       SUNNY     79  64  59 NE5       30.07F
KEARNEY *      MOSUNNY   79  63  57 CALM      30.08F
YORK           CLOUDY    77  63  61 CALM      30.05F
$$

NEZ011>018-030>034-042>045-292200-
NORTHEAST NEBRASKA

CITY           SKY/WX    TMP DP  RH WIND       PRES   REMARKS
NORFOLK        PTSUNNY   80  56  43 VRB7      30.04F
ALBION         SUNNY     78  55  44 N5        30.06F
BLAIR          MOSUNNY   78  61  55 N7        30.03F
FREMONT        MOSUNNY   80  59  49 N8        30.04F
TEKAMAH        MOSUNNY   82  59  45 NE12      30.02F
WAYNE          MOSUNNY   77  60  54 N3        30.05F
$$

NEZ050>053-065>068-078-088>093-292200-
SOUTHEAST NEBRASKA

CITY           SKY/WX    TMP DP  RH WIND       PRES   REMARKS
LINCOLN        MOSUNNY   82  61  48 N8        30.03F
OMAHA EPPLEY   MOSUNNY   82  61  48 N10       30.01F
BEATRICE       PTSUNNY   80  63  55 NE5       30.03F
FALLS CITY     SUNNY     81  63  54 N9        30.00F
NEBRASKA CITY  CLOUDY    76  61  58 CALM      30.02F
PLATTSMOUTH    PTSUNNY   81  59  46 N5        30.01F
$$

NEZ044-045-051>053-067-292200-
OMAHA AREA

CITY           SKY/WX    TMP DP  RH WIND       PRES   REMARKS
OMAHA EPPLEY   MOSUNNY   82  61  48 N10       30.01F
BLAIR          MOSUNNY   78  61  55 N7        30.03F
FREMONT        MOSUNNY   80  59  49 N8        30.04F
MILLARD        MOSUNNY   80  62  52 NW5       30.01F
PLATTSMOUTH    PTSUNNY   81  59  46 N5        30.01F
WAHOO          FAIR      80  60  48 N5        30.03F
$$



USA.gov is the U.S. government's official web portal to all federal, state and local government web resources and services.